Torna al catalogo

CZ-6A DEB

AttivoSSO
NORAD 54978·DEBRIS·🇨🇳 China

Lanciato Nov 11, 2022 da Taiyuan Satellite Launch Center

Loading…

Prossimi Passaggi (prossime 24 ore)

TLE

AggiornatoSource: Space-Track

Epoca: Sep 14, 2026, 11:23 UTC

1 54978U 22151TT  26257.47452545  .00001454  00000-0  72667-3 0  9997
2 54978  98.8333 265.3909 0043549  65.4429 295.1276 14.17844007197340

Traccia CZ-6A DEB in tempo reale con AllMySat

Download on the App Store